Weather History for Ocean City, MD

Change the Weather History Date:

Thursday, August 1, 2013

  Actual Average (KSBY) Record (KSBY)
Temperature  
Mean Temperature 73 °F 76 °F  
Max Temperature 78 °F 86 °F 99 °F (1915)
Min Temperature 69 °F 67 °F 51 °F (2001)
Degree Days  
Heating Degree Days 0 0  
Month to date heating degree days 0  
Since 1 June heating degree days 20  
Since 1 July heating degree days 1  
Cooling Degree Days 8 11  
Month to date cooling degree days 11  
Year to date cooling degree days 686  
Since 1 June cooling degree days 602  
Growing Degree Days 23 (Base 50)    
Moisture  
Dew Point 70 °F    
Average Humidity 93    
Maximum Humidity 100    
Minimum Humidity 74    
Precipitation  
Precipitation 1.54 in 0.16 in 5.32 in (2013)
Month to date precipitation 0.16  
Year to date precipitation 26.80  
Snow  
Snow 0.00 in 0.00 in 0.00 in (2002)
Month to date snowfall 0.0  
Since 1 July snowfall 0.0  
Snow Depth -    
Sea Level Pressure  
Sea Level Pressure 29.90 in    
Wind  
Wind Speed 6 mph (SSW)    
Max Wind Speed 15 mph    
Max Gust Speed 23 mph    
Visibility 6 miles    
Events Fog , Rain    
T = Trace of Precipitation, MM = Missing Value Source: NWS Daily Summary

Daily Weather History Graph

Daily Weather History Graph

Search for Another Location

Airport:

Trip Planner

Search our weather history database for the weather conditions in past years. The results will help you decide how hot, cold, wet, or windy it might be!

Date:

Astronomy

Aug. 01, 2013 Rise Set
Actual Time 6:02 AM EDT 8:10 PM EDT
Civil Twilight 5:33 AM EDT 8:39 PM EDT
Nautical Twilight 4:57 AM EDT 9:15 PM EDT
Astronomical Twilight 4:18 AM EDT 9:53 PM EDT
Moon 1:37 AM EDT (8/1) 4:16 PM EDT (8/1)
Length of Visible Light 15h 05m
Length of Day
14h 07m
Waning Crescent, 23% of the Moon is Illuminated
Aug 1
Waning Crescent
Aug 6
New
Aug 14
First Quarter
Aug 20
Full
Aug 28
Last Quarter

Hourly Weather History & Observations

Time (EDT) Temp. Dew Point Humidity Pressure Visibility Wind Dir Wind Speed Gust Speed Precip Events Conditions
12:53 AM 73.0 °F - N/A% 30.05 in 10.0 mi SSW 3.5 mph - N/A   Scattered Clouds
1:53 AM 73.0 °F - N/A% 30.03 in 10.0 mi Calm Calm - N/A   Mostly Cloudy
2:53 AM 73.0 °F - N/A% 30.01 in 10.0 mi Calm Calm - N/A   Overcast
3:53 AM 73.0 °F - N/A% 30.00 in 10.0 mi Variable 4.6 mph - N/A   Overcast
4:53 AM 73.0 °F - N/A% 29.99 in 10.0 mi Variable 3.5 mph - N/A   Overcast
5:53 AM 73.0 °F - N/A% 29.98 in 10.0 mi Variable 3.5 mph - N/A   Overcast
6:53 AM 73.0 °F - N/A% 29.97 in 10.0 mi Calm Calm - N/A   Scattered Clouds
7:53 AM 75.0 °F - N/A% 29.97 in 10.0 mi Variable 3.5 mph - N/A   Overcast
8:53 AM 73.9 °F 68.0 °F 82% 29.97 in 10.0 mi Variable 3.5 mph - N/A   Overcast
9:53 AM 73.9 °F 69.1 °F 85% 29.96 in 10.0 mi South 8.1 mph - 0.00 in   Overcast
10:53 AM 75.9 °F 70.0 °F 82% 29.95 in 10.0 mi South 9.2 mph 16.1 mph N/A   Scattered Clouds
11:53 AM 75.9 °F 70.0 °F 82% 29.92 in 10.0 mi SSW 10.4 mph - N/A   Overcast
12:54 PM 77.0 °F 68.0 °F 74% 29.90 in 10.0 mi SSW 10.4 mph 21.9 mph N/A   Unknown
1:53 PM 75.9 °F 68.0 °F 76% 29.90 in 10.0 mi SSW 9.2 mph 23.0 mph N/A   Overcast
2:53 PM 73.9 °F 69.1 °F 85% 29.90 in 10.0 mi SSW 8.1 mph 23.0 mph N/A   Overcast
3:24 PM 73.4 °F 69.8 °F 88% 29.89 in 2.0 mi Variable 5.8 mph 16.1 mph 0.04 in Rain Light Rain
3:33 PM 71.6 °F 69.8 °F 94% 29.89 in 3.0 mi South 11.5 mph 18.4 mph 0.06 in Rain Light Rain
3:53 PM 73.0 °F 70.0 °F 90% 29.87 in 6.0 mi SSW 8.1 mph 19.6 mph 0.06 in   Overcast
4:07 PM 73.4 °F 69.8 °F 88% 29.87 in 1.2 mi South 10.4 mph 21.9 mph 0.14 in Rain Heavy Rain
4:15 PM 71.6 °F 71.6 °F 100% 29.86 in 0.5 mi SSW 8.1 mph 20.7 mph 0.23 in Fog , Rain Heavy Rain
4:24 PM 71.6 °F 71.6 °F 100% 29.85 in 2.0 mi Variable 6.9 mph - 0.25 in Rain Light Rain
4:34 PM 73.4 °F 71.6 °F 94% 29.85 in 5.0 mi SSW 8.1 mph - 0.26 in Rain Light Rain
4:53 PM 73.0 °F 71.1 °F 93% 29.84 in 7.0 mi SSW 8.1 mph 21.9 mph 0.26 in   Mostly Cloudy
5:53 PM 73.0 °F 70.0 °F 90% 29.86 in 10.0 mi SW 15.0 mph 21.9 mph N/A   Overcast
6:20 PM 73.4 °F 71.6 °F 94% 29.87 in 4.0 mi SSW 9.2 mph 17.3 mph 0.04 in Rain Light Rain
6:35 PM 73.4 °F 71.6 °F 94% 29.86 in 9.0 mi Variable 6.9 mph 19.6 mph 0.04 in   Overcast
6:53 PM 71.1 °F 69.1 °F 93% 29.89 in 1.0 mi West 12.7 mph 18.4 mph 0.20 in Rain Heavy Rain
6:57 PM 69.8 °F 69.8 °F 100% 29.88 in 0.2 mi Variable 4.6 mph 18.4 mph 0.25 in Fog , Rain Heavy Rain
7:08 PM 69.8 °F 69.8 °F 100% 29.88 in 0.5 mi SW 9.2 mph - 0.50 in Fog , Rain Heavy Rain
7:27 PM 69.8 °F 69.8 °F 100% 29.89 in 1.0 mi SW 13.8 mph 17.3 mph 0.69 in Rain Rain
7:53 PM 69.1 °F 68.0 °F 96% 29.90 in 3.0 mi SW 6.9 mph - 0.86 in Rain Light Rain
7:58 PM 69.8 °F 68.0 °F 94% 29.89 in 1.5 mi SSW 5.8 mph - 0.06 in Rain Heavy Rain
8:06 PM 69.8 °F 68.0 °F 94% 29.89 in 0.8 mi SW 4.6 mph - 0.16 in Rain Rain
8:12 PM 69.8 °F 68.0 °F 94% 29.87 in 2.0 mi South 3.5 mph - 0.16 in Rain Light Rain
8:21 PM 69.8 °F 69.8 °F 100% 29.84 in 9.0 mi South 9.2 mph - 0.16 in   Mostly Cloudy
8:53 PM 71.1 °F 70.0 °F 96% 29.85 in 8.0 mi SW 9.2 mph - 0.16 in   Clear
9:29 PM 71.6 °F 71.6 °F 100% 29.85 in 8.0 mi WSW 5.8 mph - N/A   Partly Cloudy
9:45 PM 71.6 °F 71.6 °F 100% 29.86 in 8.0 mi WSW 5.8 mph - N/A   Mostly Cloudy
9:53 PM 72.0 °F 71.1 °F 97% 29.86 in 7.0 mi SW 4.6 mph - N/A   Mostly Cloudy
10:20 PM 71.6 °F 71.6 °F 100% 29.84 in 6.0 mi SSW 6.9 mph - N/A   Scattered Clouds
10:53 PM 72.0 °F 71.1 °F 97% 29.84 in 8.0 mi SW 4.6 mph - N/A   Partly Cloudy
11:53 PM 72.0 °F 71.1 °F 97% 29.85 in 10.0 mi West 4.6 mph - N/A   Clear